Time,TemperatureF,DewpointF,PressureIn,WindDirection,WindDirectionDegrees,WindSpeedMPH,WindSpeedGustMPH,Humidity,HourlyPrecipIn,Conditions,Clouds,dailyrainin,SoftwareType,DateUTC
2013-12-07 00:03:00,-11.6,-17.0,30.74,WSW,243,0.0,-999.0,76,-99.99,,,0.00,weatherlink.com 1.10,2013-12-07 06:03:00,
2013-12-07 00:18:00,-11.8,-17.0,30.74,SW,231,0.0,-999.0,76,-99.99,,,0.00,weatherlink.com 1.10,2013-12-07 06:18:00,
2013-12-07 00:33:00,-11.5,-17.0,30.74,SW,226,0.0,-999.0,77,-99.99,,,0.00,weatherlink.com 1.10,2013-12-07 06:33:00,
2013-12-07 00:47:00,-11.5,-17.0,30.75,SW,226,1.0,-999.0,77,-99.99,,,0.00,weatherlink.com 1.10,2013-12-07 06:47:00,
2013-12-07 01:02:00,-11.2,-16.0,30.75,SW,231,0.0,-999.0,77,-99.99,,,0.00,weatherlink.com 1.10,2013-12-07 07:02:00,
2013-12-07 01:16:00,-11.1,-16.0,30.75,WSW,241,0.0,-999.0,77,-99.99,,,0.00,weatherlink.com 1.10,2013-12-07 07:16:00,
2013-12-07 01:30:00,-11.1,-16.0,30.75,SW,226,0.0,-999.0,77,-99.99,,,0.00,weatherlink.com 1.10,2013-12-07 07:30:00,
2013-12-07 01:44:00,-11.2,-16.0,30.74,SW,226,0.0,-999.0,77,-99.99,,,0.00,weatherlink.com 1.10,2013-12-07 07:44:00,
2013-12-07 01:59:00,-11.8,-17.0,30.75,SW,231,1.0,-999.0,76,-99.99,,,0.00,weatherlink.com 1.10,2013-12-07 07:59:00,
2013-12-07 02:13:00,-12.2,-18.0,30.76,WSW,239,0.0,-999.0,76,-99.99,,,0.00,weatherlink.com 1.10,2013-12-07 08:13:00,
2013-12-07 02:27:00,-12.5,-18.0,30.77,SSW,212,0.0,-999.0,76,-99.99,,,0.00,weatherlink.com 1.10,2013-12-07 08:27:00,
2013-12-07 02:42:00,-12.6,-18.0,30.77,SW,221,0.0,-999.0,77,-99.99,,,0.00,weatherlink.com 1.10,2013-12-07 08:42:00,
2013-12-07 02:56:00,-12.4,-18.0,30.77,SSW,204,0.0,-999.0,77,-99.99,,,0.00,weatherlink.com 1.10,2013-12-07 08:56:00,
2013-12-07 03:10:00,-12.3,-17.0,30.77,WSW,239,0.0,-999.0,77,-99.99,,,0.00,weatherlink.com 1.10,2013-12-07 09:10:00,
2013-12-07 03:25:00,-12.2,-17.0,30.77,West,270,0.0,-999.0,77,-99.99,,,0.00,weatherlink.com 1.10,2013-12-07 09:25:00,
2013-12-07 03:39:00,-12.6,-18.0,30.77,WSW,246,0.0,-999.0,77,-99.99,,,0.00,weatherlink.com 1.10,2013-12-07 09:39:00,
2013-12-07 03:53:00,-13.0,-18.0,30.77,WSW,245,0.0,-999.0,76,-99.99,,,0.00,weatherlink.com 1.10,2013-12-07 09:53:00,
2013-12-07 04:08:00,-13.3,-19.0,30.78,SW,214,0.0,-999.0,76,-99.99,,,0.00,weatherlink.com 1.10,2013-12-07 10:08:00,
2013-12-07 04:22:00,-13.5,-19.0,30.79,SW,214,0.0,-999.0,76,-99.99,,,0.00,weatherlink.com 1.10,2013-12-07 10:22:00,
2013-12-07 04:36:00,-13.9,-19.0,30.79,SW,214,0.0,-999.0,76,-99.99,,,0.00,weatherlink.com 1.10,2013-12-07 10:36:00,
2013-12-07 04:51:00,-13.5,-19.0,30.78,WSW,258,0.0,-999.0,77,-99.99,,,0.00,weatherlink.com 1.10,2013-12-07 10:51:00,
2013-12-07 05:05:00,-13.1,-18.0,30.79,WSW,250,0.0,-999.0,77,-99.99,,,0.00,weatherlink.com 1.10,2013-12-07 11:05:00,
2013-12-07 05:19:00,-13.1,-18.0,30.79,WSW,249,0.0,-999.0,77,-99.99,,,0.00,weatherlink.com 1.10,2013-12-07 11:19:00,
2013-12-07 05:34:00,-13.3,-19.0,30.79,WSW,248,0.0,-999.0,76,-99.99,,,0.00,weatherlink.com 1.10,2013-12-07 11:34:00,
2013-12-07 05:48:00,-13.5,-19.0,30.79,SSW,200,0.0,-999.0,76,-99.99,,,0.00,weatherlink.com 1.10,2013-12-07 11:48:00,
2013-12-07 06:03:00,-13.3,-18.0,30.79,West,262,0.0,-999.0,77,-99.99,,,0.00,weatherlink.com 1.10,2013-12-07 12:03:00,
2013-12-07 06:17:00,-13.4,-19.0,30.80,West,262,0.0,-999.0,76,-99.99,,,0.00,weatherlink.com 1.10,2013-12-07 12:17:00,
2013-12-07 06:31:00,-13.7,-19.0,30.80,WSW,248,0.0,-999.0,76,-99.99,,,0.00,weatherlink.com 1.10,2013-12-07 12:31:00,
2013-12-07 06:45:00,-13.9,-19.0,30.80,WSW,248,0.0,-999.0,76,-99.99,,,0.00,weatherlink.com 1.10,2013-12-07 12:45:00,
2013-12-07 07:01:00,-14.2,-20.0,30.80,WSW,251,0.0,-999.0,76,-99.99,,,0.00,weatherlink.com 1.10,2013-12-07 13:01:00,
2013-12-07 07:15:00,-14.2,-20.0,30.81,WSW,250,0.0,-999.0,76,-99.99,,,0.00,weatherlink.com 1.10,2013-12-07 13:15:00,
2013-12-07 07:30:00,-14.1,-19.0,30.80,SW,226,0.0,-999.0,76,-99.99,,,0.00,weatherlink.com 1.10,2013-12-07 13:30:00,
2013-12-07 07:44:00,-13.8,-19.0,30.81,SSW,206,0.0,-999.0,76,-99.99,,,0.00,weatherlink.com 1.10,2013-12-07 13:44:00,
2013-12-07 07:58:00,-13.3,-18.0,30.80,WSW,248,0.0,-999.0,77,-99.99,,,0.00,weatherlink.com 1.10,2013-12-07 13:58:00,
2013-12-07 08:13:00,-12.6,-18.0,30.81,WSW,254,1.0,-999.0,77,-99.99,,,0.00,weatherlink.com 1.10,2013-12-07 14:13:00,
2013-12-07 08:27:00,-11.7,-17.0,30.81,SW,226,1.0,-999.0,77,-99.99,,,0.00,weatherlink.com 1.10,2013-12-07 14:27:00,
2013-12-07 08:41:00,-11.4,-17.0,30.81,West,268,0.0,-999.0,77,-99.99,,,0.00,weatherlink.com 1.10,2013-12-07 14:41:00,
2013-12-07 08:56:00,-10.4,-16.0,30.81,West,265,2.0,-999.0,77,-99.99,,,0.00,weatherlink.com 1.10,2013-12-07 14:56:00,
2013-12-07 09:10:00,-8.5,-14.0,30.82,SSE,154,3.0,-999.0,77,-99.99,,,0.00,weatherlink.com 1.10,2013-12-07 15:10:00,
2013-12-07 09:25:00,-7.6,-13.0,30.82,SSW,212,1.0,-999.0,77,-99.99,,,0.00,weatherlink.com 1.10,2013-12-07 15:25:00,
2013-12-07 09:39:00,-7.5,-13.0,30.82,SSW,197,1.0,-999.0,77,-99.99,,,0.00,weatherlink.com 1.10,2013-12-07 15:39:00,
2013-12-07 09:53:00,-7.4,-13.0,30.82,WNW,286,4.0,-999.0,76,-99.99,,,0.00,weatherlink.com 1.10,2013-12-07 15:53:00,
2013-12-07 10:08:00,-6.8,-12.0,30.83,West,268,0.0,-999.0,76,-99.99,,,0.00,weatherlink.com 1.10,2013-12-07 16:08:00,
2013-12-07 10:22:00,-5.3,-11.0,30.83,SW,221,0.0,-999.0,76,-99.99,,,0.00,weatherlink.com 1.10,2013-12-07 16:22:00,
2013-12-07 10:36:00,-4.3,-11.0,30.82,SSW,203,2.0,-999.0,73,-99.99,,,0.00,weatherlink.com 1.10,2013-12-07 16:36:00,
2013-12-07 10:51:00,-3.9,-11.0,30.82,West,266,3.0,-999.0,72,-99.99,,,0.00,weatherlink.com 1.10,2013-12-07 16:51:00,
2013-12-07 11:05:00,-2.4,-9.0,30.81,SSW,208,1.0,-999.0,71,-99.99,,,0.00,weatherlink.com 1.10,2013-12-07 17:05:00,
2013-12-07 11:20:00,-2.8,-10.0,30.81,SSW,197,2.0,-999.0,69,-99.99,,,0.00,weatherlink.com 1.10,2013-12-07 17:20:00,
2013-12-07 11:34:00,-2.3,-10.0,30.81,West,269,2.0,-999.0,69,-99.99,,,0.00,weatherlink.com 1.10,2013-12-07 17:34:00,
2013-12-07 11:48:00,-2.1,-10.0,30.81,West,268,1.0,-999.0,68,-99.99,,,0.00,weatherlink.com 1.10,2013-12-07 17:48:00,
2013-12-07 12:03:00,-1.5,-10.0,30.80,SW,226,5.0,-999.0,68,-99.99,,,0.00,weatherlink.com 1.10,2013-12-07 18:03:00,
2013-12-07 12:17:00,-1.3,-10.0,30.79,South,191,7.0,-999.0,67,-99.99,,,0.00,weatherlink.com 1.10,2013-12-07 18:17:00,
2013-12-07 12:31:00,-0.5,-9.0,30.79,SSW,212,4.0,-999.0,67,-99.99,,,0.00,weatherlink.com 1.10,2013-12-07 18:31:00,
2013-12-07 12:45:00,0.0,-9.0,30.78,WSW,256,2.0,-999.0,65,-99.99,,,0.00,weatherlink.com 1.10,2013-12-07 18:45:00,
2013-12-07 13:00:00,0.5,-9.0,30.78,SW,221,6.0,-999.0,65,-99.99,,,0.00,weatherlink.com 1.10,2013-12-07 19:00:00,
2013-12-07 13:14:00,0.9,-8.0,30.78,WNW,297,1.0,-999.0,64,-99.99,,,0.00,weatherlink.com 1.10,2013-12-07 19:14:00,
2013-12-07 13:28:00,1.1,-9.0,30.77,SW,221,2.0,-999.0,63,-99.99,,,0.00,weatherlink.com 1.10,2013-12-07 19:28:00,
2013-12-07 13:43:00,1.1,-9.0,30.76,SW,216,6.0,-999.0,63,-99.99,,,0.00,weatherlink.com 1.10,2013-12-07 19:43:00,
2013-12-07 13:57:00,1.1,-9.0,30.76,South,187,5.0,-999.0,62,-99.99,,,0.00,weatherlink.com 1.10,2013-12-07 19:57:00,
2013-12-07 14:11:00,0.7,-9.0,30.76,WSW,240,3.0,-999.0,63,-99.99,,,0.00,weatherlink.com 1.10,2013-12-07 20:11:00,
2013-12-07 14:26:00,0.5,-9.0,30.76,West,279,3.0,-999.0,63,-99.99,,,0.00,weatherlink.com 1.10,2013-12-07 20:26:00,
2013-12-07 14:40:00,-0.4,-10.0,30.75,SW,231,2.0,-999.0,64,-99.99,,,0.00,weatherlink.com 1.10,2013-12-07 20:40:00,
2013-12-07 14:54:00,0.0,-10.0,30.75,WSW,256,1.0,-999.0,63,-99.99,,,0.00,weatherlink.com 1.10,2013-12-07 20:54:00,
2013-12-07 15:09:00,-0.6,-10.0,30.75,SW,226,3.0,-999.0,65,-99.99,,,0.00,weatherlink.com 1.10,2013-12-07 21:09:00,
2013-12-07 15:23:00,-0.6,-9.0,30.75,SSW,212,1.0,-999.0,66,-99.99,,,0.00,weatherlink.com 1.10,2013-12-07 21:23:00,
2013-12-07 15:38:00,-0.5,-9.0,30.75,WSW,253,2.0,-999.0,67,-99.99,,,0.00,weatherlink.com 1.10,2013-12-07 21:38:00,
2013-12-07 15:52:00,-0.4,-9.0,30.74,SW,226,0.0,-999.0,67,-99.99,,,0.00,weatherlink.com 1.10,2013-12-07 21:52:00,
2013-12-07 16:07:00,-0.8,-9.0,30.74,WSW,246,0.0,-999.0,67,-99.99,,,0.00,weatherlink.com 1.10,2013-12-07 22:07:00,
2013-12-07 16:21:00,-1.2,-9.0,30.74,South,184,0.0,-999.0,68,-99.99,,,0.00,weatherlink.com 1.10,2013-12-07 22:21:00,
2013-12-07 16:35:00,-1.6,-10.0,30.73,South,171,1.0,-999.0,68,-99.99,,,0.00,weatherlink.com 1.10,2013-12-07 22:35:00,
2013-12-07 16:50:00,-1.8,-9.0,30.74,SSW,199,1.0,-999.0,69,-99.99,,,0.00,weatherlink.com 1.10,2013-12-07 22:50:00,
2013-12-07 17:04:00,-2.0,-9.0,30.73,South,181,0.0,-999.0,70,-99.99,,,0.00,weatherlink.com 1.10,2013-12-07 23:04:00,
2013-12-07 17:20:00,-2.4,-10.0,30.73,SSW,195,0.0,-999.0,70,-99.99,,,0.00,weatherlink.com 1.10,2013-12-07 23:20:00,
2013-12-07 17:35:00,-2.7,-10.0,30.73,SSW,204,1.0,-999.0,71,-99.99,,,0.00,weatherlink.com 1.10,2013-12-07 23:35:00,
2013-12-07 17:49:00,-3.1,-10.0,30.72,South,181,3.0,-999.0,71,-99.99,,,0.00,weatherlink.com 1.10,2013-12-07 23:49:00,
2013-12-07 18:03:00,-3.4,-10.0,30.72,WSW,252,0.0,-999.0,72,-99.99,,,0.00,weatherlink.com 1.10,2013-12-08 00:03:00,
2013-12-07 18:18:00,-3.6,-10.0,30.72,SW,221,0.0,-999.0,73,-99.99,,,0.00,weatherlink.com 1.10,2013-12-08 00:18:00,
2013-12-07 18:32:00,-3.8,-10.0,30.71,WSW,238,0.0,-999.0,73,-99.99,,,0.00,weatherlink.com 1.10,2013-12-08 00:32:00,
2013-12-07 18:46:00,-4.0,-10.0,30.70,South,175,0.0,-999.0,73,-99.99,,,0.00,weatherlink.com 1.10,2013-12-08 00:46:00,
2013-12-07 19:01:00,-4.2,-10.0,30.70,South,175,0.0,-999.0,74,-99.99,,,0.00,weatherlink.com 1.10,2013-12-08 01:01:00,
2013-12-07 19:15:00,-4.5,-11.0,30.70,SSW,196,0.0,-999.0,74,-99.99,,,0.00,weatherlink.com 1.10,2013-12-08 01:15:00,
2013-12-07 19:29:00,-4.6,-11.0,30.71,SW,221,0.0,-999.0,75,-99.99,,,0.00,weatherlink.com 1.10,2013-12-08 01:29:00,
2013-12-07 19:44:00,-4.6,-11.0,30.70,SW,221,0.0,-999.0,75,-99.99,,,0.00,weatherlink.com 1.10,2013-12-08 01:44:00,
2013-12-07 19:58:00,-4.8,-11.0,30.70,SW,221,0.0,-999.0,75,-99.99,,,0.00,weatherlink.com 1.10,2013-12-08 01:58:00,
2013-12-07 20:13:00,-5.2,-11.0,30.70,SW,221,0.0,-999.0,75,-99.99,,,0.00,weatherlink.com 1.10,2013-12-08 02:13:00,
2013-12-07 20:27:00,-5.5,-11.0,30.70,SW,221,0.0,-999.0,75,-99.99,,,0.00,weatherlink.com 1.10,2013-12-08 02:27:00,
2013-12-07 20:41:00,-5.9,-12.0,30.70,SW,221,0.0,-999.0,75,-99.99,,,0.00,weatherlink.com 1.10,2013-12-08 02:41:00,
2013-12-07 20:55:00,-6.4,-12.0,30.70,SW,221,0.0,-999.0,75,-99.99,,,0.00,weatherlink.com 1.10,2013-12-08 02:55:00,
2013-12-07 21:10:00,-6.6,-12.0,30.69,SW,221,0.0,-999.0,76,-99.99,,,0.00,weatherlink.com 1.10,2013-12-08 03:10:00,
2013-12-07 21:27:00,-6.9,-12.0,30.68,SW,231,1.0,-999.0,76,-99.99,,,0.00,weatherlink.com 1.10,2013-12-08 03:27:00,
2013-12-07 21:41:00,-6.7,-12.0,30.67,SW,226,0.0,-999.0,77,-99.99,,,0.00,weatherlink.com 1.10,2013-12-08 03:41:00,
2013-12-07 21:55:00,-7.1,-12.0,30.67,SW,226,0.0,-999.0,77,-99.99,,,0.00,weatherlink.com 1.10,2013-12-08 03:55:00,
2013-12-07 22:10:00,-7.3,-13.0,30.67,SW,226,0.0,-999.0,77,-99.99,,,0.00,weatherlink.com 1.10,2013-12-08 04:10:00,
2013-12-07 22:24:00,-7.5,-13.0,30.67,SW,226,1.0,-999.0,77,-99.99,,,0.00,weatherlink.com 1.10,2013-12-08 04:24:00,
2013-12-07 22:39:00,-7.3,-12.0,30.68,SW,226,0.0,-999.0,78,-99.99,,,0.00,weatherlink.com 1.10,2013-12-08 04:39:00,
2013-12-07 22:53:00,-7.3,-12.0,30.67,SW,231,0.0,-999.0,78,-99.99,,,0.00,weatherlink.com 1.10,2013-12-08 04:53:00,
2013-12-07 23:07:00,-7.2,-12.0,30.66,SW,231,0.0,-999.0,78,-99.99,,,0.00,weatherlink.com 1.10,2013-12-08 05:07:00,
2013-12-07 23:22:00,-7.0,-12.0,30.66,SW,231,0.0,-999.0,78,-99.99,,,0.00,weatherlink.com 1.10,2013-12-08 05:22:00,
2013-12-07 23:36:00,-6.9,-12.0,30.66,SW,231,0.0,-999.0,78,-99.99,,,0.00,weatherlink.com 1.10,2013-12-08 05:36:00,
2013-12-07 23:50:00,-6.5,-11.0,30.66,SW,231,0.0,-999.0,79,-99.99,,,0.00,weatherlink.com 1.10,2013-12-08 05:50:00,